FW9558 Weather Reports


Display with metric or nautical units.
time (UTC)temp
F
wind
direction
speed
MPH
gust
MPH
rain 1hr
in
rain 24hr
in
rain mn
in
humidity
%
barometer
mb
20260507040041 51 0 0.0 0.0 0.00 0.00 0.00 93 1014.1
20260507034540 51 0 0.0 0.0 0.00 0.00 0.00 93 1014.1
20260507033039 51 0 0.0 0.0 0.00 0.00 0.00 92 1014.0
20260507031537 51 0 0.0 0.0 0.00 0.00 0.00 92 1014.0
20260507030036 51 0 0.0 0.0 0.00 0.00 0.00 92 1014.0
20260507024537 51 0 0.0 0.0 0.00 0.00 0.00 92 1014.0
20260507023035 51 0 0.0 0.0 0.00 0.00 0.00 91 1014.0
20260507021539 51 0 0.0 0.0 0.00 0.00 0.00 91 1013.9
20260507020043 51 0 0.0 0.0 0.00 0.00 0.00 91 1014.0
20260507014635 52 0 0.0 0.0 0.00 0.00 0.00 91 1014.0
20260507014543 52 0 0.0 0.0 0.00 0.00 0.00 91 1014.0
20260507013047 52 0 0.0 0.0 0.00 0.00 0.00 90 1013.9
20260507011536 52 0 0.0 0.0 0.00 0.00 0.00 90 1013.9
20260507010053 52 0 0.0 0.0 0.00 0.00 0.00 90 1013.9
20260507004539 53 0 0.0 0.0 0.00 0.00 0.00 90 1014.0
20260507003039 53 0 0.0 0.0 0.00 0.00 0.00 89 1014.2
20260507001535 53 0 0.0 0.0 0.00 0.00 0.00 89 1014.2
20260507000041 53 0 0.0 0.0 0.00 0.00 0.00 89 1014.2
20260506234541 53 0 0.0 0.0 0.00 0.00 0.00 88 1014.2
20260506233054 53 0 0.0 0.0 0.00 0.00 0.00 88 1014.1
20260506231541 54 0 0.0 0.0 0.00 0.00 0.00 87 1014.2
20260506230037 54 0 0.0 0.0 0.00 0.00 0.00 87 1014.2
20260506224536 54 0 0.0 0.0 0.00 0.00 0.00 86 1014.2
20260506223040 54 0 0.0 0.0 0.00 0.00 0.00 86 1014.1
20260506221540 54 0 0.0 0.0 0.00 0.00 0.00 85 1014.2
20260506220041 54 0 0.0 0.0 0.00 0.00 0.00 85 1014.1
20260506214538 55 0 0.0 0.0 0.00 0.00 0.00 85 1014.2
20260506213037 55 0 0.0 0.0 0.00 0.00 0.00 84 1014.1
20260506211536 55 0 0.0 0.0 0.00 0.00 0.00 84 1014.0
20260506210041 55 0 0.0 0.0 0.00 0.00 0.00 84 1014.0
20260506204539 55 0 0.0 0.0 0.00 0.00 0.00 83 1013.8
20260506203035 55 0 0.0 0.0 0.00 0.00 0.00 82 1013.8
20260506201537 55 0 0.0 0.0 0.00 0.00 0.00 82 1013.6
20260506200041 55 0 0.0 0.0 0.00 0.00 0.00 82 1013.5
20260506194546 55 0 0.0 0.0 0.00 0.00 0.00 82 1013.2
20260506193038 55 0 0.0 1.0 0.00 0.00 0.00 82 1013.1
20260506191635 56 0 0.0 3.0 0.00 0.00 0.00 82 1012.8
20260506191539 56 0 0.0 3.0 0.00 0.00 0.00 82 1012.8
20260506190542 56 22 0.0 3.0 0.00 0.00 0.00 82 1012.7
20260506184536 56 0 0.0 3.0 0.00 0.00 0.00 81 1012.6
20260506183041 56 5 1.0 4.0 0.00 0.00 0.00 80 1012.5
20260506181539 56 0 1.0 8.0 0.00 0.00 0.00 80 1012.7
20260506180043 56 336 2.0 8.0 0.00 0.00 0.00 80 1012.4
20260506174538 57 346 1.0 6.0 0.00 0.00 0.00 81 1012.2
20260506173043 57 0 1.0 5.0 0.00 0.00 0.00 81 1012.1
20260506171540 57 342 1.0 4.0 0.00 0.00 0.00 81 1012.0
20260506170042 57 355 1.0 6.0 0.00 0.00 0.00 81 1011.9
20260506164552 57 15 1.0 6.0 0.00 0.00 0.00 81 1011.9
20260506163041 57 355 2.0 5.0 0.00 0.00 0.00 80 1011.9
20260506161538 58 355 1.0 7.0 0.00 0.00 0.00 80 1011.8
20260506160041 57 300 2.0 9.0 0.00 0.00 0.00 79 1011.7
20260506154547 58 76 1.0 10.0 0.00 0.00 0.00 80 1011.7
20260506153039 58 348 2.0 9.0 0.00 0.00 0.00 80 1011.5
20260506151541 58 50 2.0 8.0 0.00 0.00 0.00 80 1011.6
20260506150038 58 9 2.0 11.0 0.00 0.00 0.00 81 1011.5
20260506144538 59 0 2.0 8.0 0.00 0.00 0.00 80 1011.5
20260506143037 57 26 2.0 11.0 0.00 0.00 0.00 82 1011.4
20260506141554 57 15 3.0 12.0 0.00 0.00 0.00 83 1011.5
20260506140041 56 343 3.0 10.0 0.00 0.00 0.00 86 1011.4
20260506134538 56 136 4.0 11.0 0.00 0.00 0.00 86 1011.5
20260506133037 56 196 3.0 8.0 0.00 0.00 0.00 85 1011.4
20260506131538 56 344 3.0 12.0 0.00 0.00 0.00 86 1011.3
20260506130035 56 360 2.0 6.0 0.00 0.00 0.00 88 1011.3
20260506124542 55 338 0.0 9.0 0.00 0.00 0.00 88 1011.1
20260506123043 56 336 1.0 6.0 0.00 0.00 0.00 88 1011.2
20260506121538 56 355 1.0 6.0 0.00 0.00 0.00 88 1011.0
20260506120104 57 26 2.0 12.0 0.00 0.00 0.00 87 1010.9
20260506114536 58 321 1.0 6.0 0.00 0.00 0.00 88 1011.0
20260506113040 57 348 1.0 6.0 0.00 0.00 0.00 89 1010.8
20260506111540 56 5 0.0 6.0 0.00 0.00 0.00 92 1010.8
20260506110038 56 0 0.0 4.0 0.00 0.00 0.00 93 1010.9
20260506104540 55 272 0.0 4.0 0.00 0.00 0.00 93 1010.8
20260506103036 55 0 0.0 4.0 0.00 0.00 0.00 93 1010.9
20260506101533 55 0 0.0 3.0 0.00 0.00 0.00 93 1010.8
20260506100039 54 351 1.0 6.0 0.00 0.00 0.00 93 1010.8
20260506094545 55 0 1.0 4.0 0.00 0.00 0.00 94 1010.6
20260506093045 54 324 1.0 4.0 0.00 0.00 0.00 94 1010.4
20260506091536 53 333 1.0 4.0 0.00 0.00 0.00 94 1010.4
20260506090035 53 22 1.0 4.0 0.00 0.00 0.00 94 1010.3
20260506084541 53 352 0.0 4.0 0.00 0.00 0.00 94 1010.1
20260506083043 53 346 1.0 4.0 0.00 0.00 0.00 94 1010.0
20260506081540 53 340 1.0 5.0 0.00 0.00 0.00 94 1010.0
20260506073041 52 5 2.0 5.0 0.00 0.00 0.00 95 1009.7
20260506071549 52 0 0.0 4.0 0.00 0.00 0.00 95 1009.5
20260506061537 51 0 0.0 0.0 0.00 0.00 0.00 95 1009.2
20260506044550 51 0 0.0 0.0 0.00 0.00 0.00 95 1008.7
20260506043040 51 0 0.0 0.0 0.00 0.00 0.00 94 1008.6
20260506041546 51 0 0.0 0.0 0.00 0.00 0.00 94 1008.7